This is the latest recevied weather packets stored in our database for station/object W5CMS-13. If no packets are shown the sender has not sent any weather packets the latest 10 day(s).
| Time | Temp. | Humidity | Pressure | Rain* | Wind** | Luminosity | Snow |
|---|---|---|---|---|---|---|---|
| 1777170017 | 27.22° C | 77% | 1004.5 hPa | 0 mm | - | - | - |
| 1777169417 | 27.22° C | 76% | 1004.3 hPa | 0 mm | - | - | - |
| 1777168817 | 27.22° C | 76% | 1004.5 hPa | 0 mm | - | - | - |
| 1777168217 | 27.78° C | 75% | 1004.5 hPa | 0 mm | - | - | - |
| 1777167617 | 27.78° C | 74% | 1004.3 hPa | 0 mm | - | - | - |
| 1777167018 | 27.78° C | 74% | 1003.8 hPa | 0 mm | - | - | - |
| 1777166417 | 27.78° C | 73% | 1003.9 hPa | 0 mm | - | - | - |
| 1777165817 | 27.78° C | 73% | 1004 hPa | 0 mm | - | - | - |
| 1777165217 | 28.33° C | 73% | 1003.7 hPa | 0 mm | - | - | - |
| 1777164617 | 28.33° C | 73% | 1003.7 hPa | 0 mm | - | - | - |
| 1777164017 | 28.33° C | 73% | 1003.6 hPa | 0 mm | - | - | - |
| 1777163417 | 28.33° C | 72% | 1003.8 hPa | 0 mm | - | - | - |
| 1777162817 | 28.33° C | 72% | 1004.1 hPa | 0 mm | - | - | - |
| 1777162218 | 28.33° C | 72% | 1004 hPa | 0 mm | - | - | - |
| 1777161617 | 28.33° C | 71% | 1003.7 hPa | 0 mm | - | - | - |
| 1777161018 | 28.33° C | 71% | 1003.7 hPa | 0 mm | - | - | - |
| 1777160418 | 28.89° C | 71% | 1003.8 hPa | 0 mm | - | - | - |
| 1777159818 | 28.89° C | 70% | 1003.6 hPa | 0 mm | - | - | - |
| 1777159217 | 28.89° C | 70% | 1003.4 hPa | 0 mm | - | - | - |
| 1777158617 | 29.44° C | 69% | 1003.3 hPa | 0 mm | - | - | - |
| 1777158017 | 29.44° C | 69% | 1003.1 hPa | 0 mm | - | - | - |
| 1777157417 | 30° C | 68% | 1003 hPa | 0 mm | - | - | - |
| 1777156817 | 29.44° C | 69% | 1003.1 hPa | 0 mm | - | - | - |
| 1777156218 | 30° C | 69% | 1003.5 hPa | 0 mm | - | - | - |
| 1777155617 | 29.44° C | 70% | 1003.6 hPa | 0 mm | - | - | - |
* Rain latest hour (hover to see other rain measurements)
** Current wind speed in m/s (hover to see current wind gust speed)